[[{"header":{"parameterUnit":"m.s-1","parameterCategory":1,"la1":30.2991,"la2":30.254,"lo1":-89.0895,"lo2":-89.0444,"dy":0.0017,"dx":0.0017,"nx":28,"ny":28,"refTime":"2024-11-29T03:00:00:Z","depth":0,"parameterNumber":2,"parameterNumberName":"U-component_of_WINDS"},"data":[0,0,0,0,0,0,0,0,0,0,0,0,0,0,0,0,0,0,0,0,0,0,0,0,0,0,0,0,0,0,0,0,0,0,0,0,0,0,0,0,0,0,0,0,0,0,0,0,0,0,0,0,0,0,0,0,0,0,-0.7206,-0.7206,0,-0.725,-0.725,-0.7251,-0.7245,-0.7244,-0.7243,-0.7243,-0.7288,-0.729,-0.7292,0,0,0,0,0,0,0,0,0,0,0,0,0,-0.7117,-0.7118,-0.7206,-0.7206,-0.7207,-0.725,-0.725,-0.7251,-0.7245,-0.7244,-0.7243,-0.7242,-0.7288,-0.729,-0.7292,0,0,0,0,0,0,0,0,0,0,0,0,0,-0.7157,-0.7119,-0.7206,-0.7209,-0.721,-0.725,-0.725,-0.7251,-0.7245,-0.7244,-0.7243,-0.7242,-0.7287,-0.729,-0.7292,-0.7332,0,0,-0.7301,-0.7302,0,0,0,0,0,0,0,0,-0.7155,-0.7161,-0.7208,-0.7209,-0.721,-0.7241,-0.7236,-0.7278,-0.7245,-0.7232,-0.7242,-0.7241,-0.7273,-0.7277,-0.7288,-0.7334,-0.7336,-0.7301,-0.7303,-0.7304,-0.7305,0,0,0,0,0,0,0,-0.7152,-0.7159,-0.7223,-0.7209,-0.721,-0.7208,-0.7213,-0.7244,-0.7258,-0.7233,-0.7232,-0.7238,-0.7274,-0.7285,-0.7289,-0.7337,-0.7301,-0.7304,-0.7306,-0.7307,-0.7418,-0.7419,0,0,0,0,0,0,-0.7149,-0.7157,-0.7222,-0.7225,-0.7179,-0.7211,-0.7216,-0.7232,-0.7258,-0.7261,-0.7239,-0.7237,-0.7281,-0.7286,-0.729,-0.7339,-0.7304,-0.7307,-0.7309,-0.7416,-0.7418,-0.7419,0,0,0,0,0,0,-0.7147,-0.7154,-0.722,-0.7191,-0.7199,-0.7214,-0.7231,-0.7233,-0.7245,-0.7262,-0.7265,-0.7248,-0.728,-0.7286,-0.7322,-0.734,-0.7308,-0.7311,-0.7415,-0.7417,-0.7419,-0.7436,0,0,0,0,0,0,-0.7144,-0.7154,-0.7169,-0.7191,-0.72,-0.7251,-0.7233,-0.7235,-0.725,-0.7248,-0.7271,-0.7274,-0.728,-0.7317,-0.7325,-0.7344,-0.7313,-0.7413,-0.7416,-0.7418,-0.7434,-0.7438,-0.7442,0,0,0,0,0,-0.7141,-0.7173,-0.717,-0.7178,-0.722,-0.7252,-0.7257,-0.7263,-0.7251,-0.7267,-0.7278,-0.7274,-0.7337,-0.7321,-0.7329,-0.7349,-0.7412,-0.7415,-0.7418,-0.7432,-0.7437,-0.7441,0,0,0,0,0,0,-0.7153,-0.7175,-0.7173,-0.7212,-0.723,-0.7251,-0.7271,-0.7268,-0.729,-0.7288,-0.7294,-0.7299,-0.7335,-0.7345,-0.7327,-0.7389,-0.7373,-0.7377,-0.7381,-0.7386,-0.739,-0.7387,-0.7315,0,0,0,0,0,-0.716,-0.7184,-0.7202,-0.7235,-0.7244,-0.7256,-0.727,-0.7273,-0.7291,-0.7299,-0.7313,-0.7331,-0.7355,-0.7371,-0.7394,-0.7434,-0.744,-0.7452,-0.7456,-0.7459,-0.7464,-0.7486,-0.7492,-0.7428,-0.7428,-0.7428,0,0,-0.7176,-0.7191,-0.7206,-0.7238,-0.7252,-0.7277,-0.7262,-0.7289,-0.7308,-0.7303,-0.7338,-0.7348,-0.7369,-0.7407,-0.7424,-0.7417,-0.7482,-0.7463,-0.7465,-0.7468,-0.7489,-0.7495,-0.7501,-0.743,-0.743,-0.743,0,0,-0.7216,-0.723,-0.7259,-0.7273,-0.7295,-0.7302,-0.7309,-0.7329,-0.7336,-0.737,-0.7367,-0.7389,-0.743,-0.7445,-0.7458,-0.7504,-0.7501,-0.7511,-0.7532,-0.7554,-0.7559,-0.7563,-0.758,-0.7586,-0.7515,-0.7515,-0.7515,0,-0.7233,-0.727,-0.7274,-0.7302,-0.7316,-0.7312,-0.7342,-0.7355,-0.7383,-0.7393,-0.7384,-0.7435,-0.7449,-0.7491,-0.7502,-0.7512,-0.752,-0.7509,-0.7558,-0.7562,-0.7566,-0.7582,-0.7588,-0.7516,-0.7516,-0.7516,-0.7515,0,-0.7289,-0.7315,-0.7336,-0.7363,-0.7379,-0.7408,-0.7416,-0.7432,-0.7433,-0.7441,-0.7476,-0.7492,-0.7518,-0.7528,-0.7529,-0.7569,-0.7564,-0.7556,-0.7541,-0.7574,-0.7589,-0.7595,-0.7517,-0.7517,-0.7517,-0.7516,0,0,-0.734,-0.7368,-0.7376,-0.7388,-0.7411,-0.7431,-0.7458,-0.7484,-0.7498,-0.7516,-0.754,-0.7574,-0.7567,-0.7582,-0.7584,-0.7603,-0.7638,-0.7593,-0.7594,-0.7601,-0.7684,-0.769,-0.7697,-0.7636,-0.7637,-0.7638,-0.7682,0,-0.7384,-0.7433,-0.7437,-0.7481,-0.7505,-0.7501,-0.7525,-0.7542,-0.755,-0.7571,-0.758,-0.7604,-0.7593,-0.7601,-0.762,-0.763,-0.7655,-0.7627,-0.7658,-0.7659,-0.7654,-0.7705,-0.7712,-0.7753,-0.7688,-0.7689,-0.769,0,-0.7442,-0.7462,-0.7509,-0.7527,-0.7538,-0.7559,-0.7582,-0.7603,-0.7621,-0.7625,-0.7641,-0.7641,-0.7669,-0.7652,-0.7691,-0.7672,-0.7684,-0.7691,-0.7693,-0.7697,-0.7677,-0.7711,-0.7766,-0.7773,-0.7699,-0.7698,-0.7697,0,-0.7475,-0.7514,-0.7547,-0.7557,-0.758,-0.7595,-0.7605,-0.7622,-0.7637,-0.7657,-0.7667,-0.769,-0.7703,-0.772,-0.7726,-0.7713,-0.7765,-0.7748,-0.777,-0.777,-0.7782,-0.7782,-0.7841,-0.7789,-0.7789,-0.7789,-0.7789,0,-0.7524,-0.7553,-0.7562,-0.7582,-0.7614,-0.7618,-0.765,-0.7659,-0.7674,-0.7696,-0.7693,-0.7714,-0.772,-0.7742,-0.7746,-0.7778,-0.7784,-0.7788,-0.7789,-0.7789,-0.7789,-0.7798,-0.7796,-0.779,-0.779,-0.779,-0.7789,0,-0.7567,-0.7574,-0.761,-0.7628,-0.7633,-0.7656,-0.7672,-0.7691,-0.7698,-0.7726,-0.7732,-0.7744,-0.7769,-0.7776,-0.7806,-0.7809,-0.7847,-0.7845,-0.7841,-0.7841,-0.7863,-0.7861,-0.7932,-0.7941,-0.7882,-0.7883,-0.7883,0,-0.7598,-0.762,-0.764,-0.7655,-0.7666,-0.7689,-0.7704,-0.7708,-0.7723,-0.7745,-0.7762,-0.7787,-0.7807,-0.7848,-0.7858,-0.7881,-0.788,-0.7903,-0.7884,-0.7883,-0.7881,-0.788,-0.7883,-0.7908,-0.7908,-0.7909,-0.7909,0,-0.7653,-0.7655,-0.7677,-0.7699,-0.7717,-0.7735,-0.7752,-0.7764,-0.7771,-0.7788,-0.7814,-0.7829,-0.786,-0.7885,-0.7908,-0.7918,-0.7915,-0.7915,-0.7921,-0.7922,-0.7919,-0.7921,-0.7852,-0.7914,-0.7913,-0.7913,-0.7913,-0.7912,-0.7692,-0.7711,-0.7728,-0.7752,-0.7765,-0.7781,-0.78,-0.7809,-0.783,-0.7856,-0.7857,-0.7884,-0.7901,-0.7932,-0.7943,-0.7965,-0.7958,-0.7968,-0.797,-0.7972,-0.7975,-0.7914,-0.7969,-0.7969,-0.7969,-0.7969,-0.7969,0,-0.7747,-0.7757,-0.7779,-0.7803,-0.7822,-0.7816,-0.7835,-0.7851,-0.7875,-0.7891,-0.7911,-0.794,-0.7963,-0.7975,-0.7999,-0.8014,-0.8013,-0.802,-0.8019,-0.8022,-0.7979,-0.7971,-0.802,-0.802,-0.802,-0.802,-0.802,-0.802,-0.7778,-0.781,-0.7814,-0.7853,-0.7863,-0.789,-0.7901,-0.7916,-0.7929,-0.7961,-0.7981,-0.7988,-0.8002,-0.8027,-0.8048,-0.8051,-0.806,-0.8068,-0.807,-0.803,-0.8025,-0.802,-0.8013,-0.8069,-0.807,-0.8111,-0.8111,-0.8112]},{"header":{"parameterUnit":"m.s-1","parameterCategory":1,"la1":30.2991,"la2":30.254,"lo1":-89.0895,"lo2":-89.0444,"dy":0.0017,"dx":0.0017,"nx":28,"ny":28,"refTime":"2024-11-29T03:00:00:Z","depth":0,"parameterNumber":3,"parameterNumberName":"V-component_of_WINDS"},"data":[0,0,0,0,0,0,0,0,0,0,0,0,0,0,0,0,0,0,0,0,0,0,0,0,0,0,0,0,0,0,0,0,0,0,0,0,0,0,0,0,0,0,0,0,0,0,0,0,0,0,0,0,0,0,0,0,0,0,-7.2409,-7.241,0,-7.2517,-7.2518,-7.2519,-7.2465,-7.2462,-7.2459,-7.2457,-7.2561,-7.2567,-7.2572,0,0,0,0,0,0,0,0,0,0,0,0,0,-7.215,-7.2155,-7.2408,-7.241,-7.2411,-7.2516,-7.2518,-7.2519,-7.2466,-7.2462,-7.2459,-7.2456,-7.256,-7.2566,-7.2572,0,0,0,0,0,0,0,0,0,0,0,0,0,-7.226,-7.2156,-7.2408,-7.2397,-7.2397,-7.2516,-7.2518,-7.252,-7.2466,-7.2462,-7.2458,-7.2454,-7.2557,-7.2565,-7.2573,-7.2707,0,0,-7.2598,-7.2601,0,0,0,0,0,0,0,0,-7.2254,-7.227,-7.2397,-7.2398,-7.2398,-7.2473,-7.2465,-7.2582,-7.2467,-7.244,-7.2457,-7.2452,-7.2535,-7.2545,-7.2574,-7.2712,-7.2717,-7.2599,-7.2604,-7.2607,-7.2609,0,0,0,0,0,0,0,-7.2246,-7.2265,-7.2451,-7.2399,-7.24,-7.2385,-7.2396,-7.2487,-7.2509,-7.2442,-7.2438,-7.2452,-7.2534,-7.2566,-7.2576,-7.2718,-7.2598,-7.2606,-7.2611,-7.2614,-7.2972,-7.2977,0,0,0,0,0,0,-7.224,-7.2259,-7.2448,-7.2454,-7.2315,-7.2393,-7.2405,-7.2453,-7.2508,-7.2513,-7.2456,-7.2449,-7.2555,-7.2567,-7.2579,-7.2741,-7.2607,-7.2615,-7.2619,-7.2968,-7.2973,-7.2978,0,0,0,0,0,0,-7.2235,-7.2257,-7.2443,-7.2356,-7.2378,-7.2402,-7.2456,-7.2458,-7.249,-7.2519,-7.2522,-7.2485,-7.2552,-7.2568,-7.2677,-7.2744,-7.2618,-7.2626,-7.2962,-7.2969,-7.2976,-7.3065,0,0,0,0,0,0,-7.2228,-7.2256,-7.2308,-7.2357,-7.2383,-7.2541,-7.246,-7.2463,-7.2504,-7.2497,-7.2547,-7.2551,-7.255,-7.2665,-7.2685,-7.2753,-7.2632,-7.2956,-7.2965,-7.2974,-7.3056,-7.3074,-7.3089,0,0,0,0,0,-7.2219,-7.2327,-7.2311,-7.2334,-7.245,-7.2545,-7.2559,-7.2557,-7.251,-7.2562,-7.2581,-7.2549,-7.2733,-7.2676,-7.2698,-7.277,-7.2952,-7.2963,-7.2973,-7.3048,-7.307,-7.3089,0,0,0,0,0,0,-7.2283,-7.2334,-7.2316,-7.2445,-7.2491,-7.2535,-7.2601,-7.258,-7.2639,-7.263,-7.2623,-7.2634,-7.2748,-7.2769,-7.2705,-7.2903,-7.2835,-7.285,-7.2885,-7.2906,-7.2922,-7.2915,-7.2639,0,0,0,0,0,-7.2313,-7.2388,-7.2427,-7.2536,-7.2561,-7.2577,-7.2618,-7.2613,-7.266,-7.2679,-7.2705,-7.275,-7.2818,-7.2863,-7.2927,-7.3058,-7.3068,-7.3118,-7.3135,-7.3148,-7.3162,-7.3234,-7.3256,-7.3013,-7.3013,-7.3013,0,0,-7.2374,-7.2411,-7.2458,-7.255,-7.2585,-7.2662,-7.2594,-7.2677,-7.2733,-7.269,-7.2796,-7.2817,-7.2866,-7.2987,-7.3042,-7.3009,-7.3231,-7.3162,-7.3172,-7.3179,-7.3247,-7.327,-7.329,-7.302,-7.3019,-7.3018,0,0,-7.2525,-7.256,-7.2656,-7.2694,-7.2749,-7.2759,-7.2782,-7.283,-7.2844,-7.2949,-7.2919,-7.2984,-7.3102,-7.3139,-7.3173,-7.3339,-7.3312,-7.3359,-7.3447,-7.3517,-7.3536,-7.3553,-7.3613,-7.3634,-7.3373,-7.3373,-7.3373,0,-7.2593,-7.2709,-7.2707,-7.2794,-7.2835,-7.2803,-7.2899,-7.2934,-7.3007,-7.3035,-7.2997,-7.3145,-7.3175,-7.3305,-7.3346,-7.3374,-7.34,-7.3354,-7.3534,-7.3551,-7.3567,-7.3624,-7.3646,-7.3378,-7.3378,-7.3377,-7.3377,0,-7.2791,-7.2872,-7.2942,-7.3016,-7.3065,-7.3156,-7.3166,-7.3216,-7.3206,-7.322,-7.3328,-7.3364,-7.3436,-7.3466,-7.3456,-7.3594,-7.3572,-7.3535,-7.3467,-7.3596,-7.3649,-7.3671,-7.3386,-7.3384,-7.3383,-7.3381,0,0,-7.2986,-7.3059,-7.3085,-7.3118,-7.3177,-7.3239,-7.3327,-7.34,-7.3443,-7.3493,-7.3567,-7.3668,-7.3634,-7.3672,-7.3666,-7.3728,-7.3858,-7.3682,-7.3683,-7.3715,-7.4013,-7.4042,-7.4067,-7.384,-7.3844,-7.3848,-7.4009,0,-7.3142,-7.3301,-7.3302,-7.3447,-7.3521,-7.3492,-7.3569,-7.3613,-7.3628,-7.3692,-7.3707,-7.3779,-7.3728,-7.3752,-7.3811,-7.383,-7.3918,-7.3818,-7.3908,-7.3911,-7.3898,-7.4095,-7.4126,-7.4276,-7.403,-7.4033,-7.4036,0,-7.3345,-7.3406,-7.356,-7.3609,-7.364,-7.371,-7.3777,-7.3838,-7.3887,-7.3893,-7.3938,-7.3923,-7.4012,-7.3941,-7.4063,-7.3995,-7.4032,-7.4047,-7.4052,-7.4061,-7.3982,-7.411,-7.4324,-7.4347,-7.4069,-7.4066,-7.4064,0,-7.3473,-7.3593,-7.37,-7.373,-7.379,-7.384,-7.3867,-7.3911,-7.3955,-7.4012,-7.404,-7.4106,-7.4142,-7.4193,-7.4196,-7.4144,-7.4319,-7.4248,-7.4326,-7.4327,-7.4365,-7.4363,-7.4589,-7.4388,-7.4387,-7.4387,-7.4386,0,-7.3647,-7.3743,-7.3759,-7.3826,-7.3931,-7.3931,-7.4034,-7.4056,-7.4097,-7.4166,-7.4142,-7.4207,-7.4206,-7.4272,-7.4274,-7.4375,-7.4391,-7.4398,-7.4398,-7.4401,-7.44,-7.4425,-7.4415,-7.4393,-7.4392,-7.439,-7.4389,0,-7.3809,-7.3823,-7.3939,-7.3987,-7.4002,-7.4077,-7.4117,-7.418,-7.4193,-7.4281,-7.4301,-7.4322,-7.4398,-7.4406,-7.4493,-7.4494,-7.4617,-7.4604,-7.4602,-7.46,-7.4678,-7.4671,-7.4929,-7.4963,-7.4738,-7.4741,-7.4742,0,-7.392,-7.3993,-7.405,-7.4096,-7.4126,-7.42,-7.4245,-7.4246,-7.4294,-7.4355,-7.441,-7.4484,-7.4544,-7.4666,-7.4688,-7.4754,-7.4744,-7.483,-7.4754,-7.4755,-7.4746,-7.4742,-7.475,-7.4845,-7.4847,-7.4849,-7.4851,0,-7.4115,-7.412,-7.4187,-7.4258,-7.4313,-7.4367,-7.4419,-7.4457,-7.4464,-7.4519,-7.4598,-7.4644,-7.4735,-7.4808,-7.4874,-7.4899,-7.4877,-7.4875,-7.4897,-7.4901,-7.4897,-7.4901,-7.4643,-7.4869,-7.4867,-7.4866,-7.4865,-7.4864,-7.4255,-7.432,-7.437,-7.4446,-7.4485,-7.4534,-7.4596,-7.4618,-7.4685,-7.4761,-7.4756,-7.4844,-7.4889,-7.4976,-7.5006,-7.5073,-7.5044,-7.5075,-7.5083,-7.5091,-7.51,-7.4886,-7.5085,-7.5084,-7.5084,-7.5083,-7.5083,0,-7.4451,-7.4482,-7.4552,-7.4626,-7.4686,-7.4661,-7.4717,-7.4768,-7.4846,-7.4892,-7.4952,-7.5042,-7.5114,-7.5141,-7.5211,-7.5259,-7.525,-7.5277,-7.5274,-7.528,-7.5121,-7.5096,-7.5283,-7.5283,-7.5283,-7.5283,-7.5283,-7.5283,-7.456,-7.4668,-7.4678,-7.4804,-7.4834,-7.4921,-7.4955,-7.5,-7.5037,-7.514,-7.52,-7.5219,-7.5257,-7.5329,-7.5393,-7.5399,-7.5426,-7.5458,-7.546,-7.5311,-7.5291,-7.5272,-7.5248,-7.5464,-7.5464,-7.5613,-7.5614,-7.5615]}]]